Regional Weather Roundup
Issued by NWS

Home | Current Version | Previous Version | Text Only | Print | Product List | Glossary On
Versions: 1 2 3 4 5 6 7 8 9 10 11 12 13 14 15 16 17 18 19 20 21 22 23 24 25 26 27 28 29 30 31 32 33 34 35 36 37 38 39 40 41 42 43 44 45 46 47 48 49 50
000
ASUS43 KLMK 251410
RWRKY
KENTUCKY REGIONAL WEATHER ROUNDUP
NATIONAL WEATHER SERVICE LOUISVILLE KY
1000 AM EDT MON JUL 25 2016

NOTE "FAIR" INDICATES FEW OR NO CLOUDS BELOW 12,000 FEET
WITH NO SIGNIFICANT WEATHER AND/OR OBSTRUCTIONS TO VISIBILITY.

KYZ001>023-026-027-061>063-070>075-251500-
WESTERN AND SOUTH CENTRAL KENTUCKY

CITY           SKY/WX    TMP DP  RH WIND       PRES   REMARKS
PADUCAH        CLOUDY    85  77  77 VRB3      30.00S HX  95
HENDERSON      PTSUNNY   82  75  78 S5        29.99R
OWENSBORO      PTSUNNY   86  79  79 S7        30.01R HX  99
HOPKINSVILLE   MOSUNNY   84  75  74 SW5       30.03R HX  92
BOWLING GREEN  CLOUDY    85  75  72 SW8       30.03F HX  93
GLASGOW        SUNNY     84  77  81 SW3       30.04F HX  93
$$

KYZ024-025-028>034-038-045-046-053-251500-
NORTH CENTRAL KENTUCKY

CITY           SKY/WX    TMP DP  RH WIND       PRES   REMARKS
LOUISVILLE/SDF CLOUDY    87  75  67 SW5       29.99F HX  96
LOUISVILLE/LOU CLOUDY    86  76  71 SW5       30.00S HX  96
FORT KNOX      CLOUDY    84  76  78 S5        30.00S HX  93
$$

KYZ035>037-039>044-047>052-055>060-089>105-251500-
NORTHEAST KENTUCKY

CITY           SKY/WX    TMP DP  RH WIND       PRES   REMARKS
LEXINGTON      CLOUDY    85  75  72 S8        30.03F HX  93
COVINGTON      PTSUNNY   85  77  77 S8        30.01S HX  95
FRANKFORT      CLOUDY    85  75  72 W5        30.01F HX  93
$$

KYZ054-064>069-076>088-106>120-251500-
SOUTHEAST KENTUCKY

CITY           SKY/WX    TMP DP  RH WIND       PRES   REMARKS
JACKSON        MOSUNNY   80  75  84 VRB3      30.09F
LONDON         SUNNY     81  72  74 SW3       30.09S
SOMERSET       CLOUDY    79  73  83 CALM      30.08F
MIDDLESBORO    SUNNY     80  75  85 CALM      30.10F
MONTICELLO     MOSUNNY  N/A N/A N/A NW10      30.09F
$$





USA.gov is the U.S. government's official web portal to all federal, state and local government web resources and services.